Velovelo
Português Nederlands 日本語 中文
Español English čeština slovenčina
русский italiano polski norsk
français Deutsch svenska عربي
 
 poprzednia strona
 Wyślij znajomemu
 Aby wydrukować
 ---> La Mi-Marmotte 2010 : résultats

Cl...Dos.NomPrénomCat.C.cTemps..Ecart
1 8290 MANTEL ALEXANDRE C 1 2:59:13 0:00:00
2 8157 LUDEWIG STEPHAN E 1 3:07:04 0:07:51
3 8152 BRUTTOMESSO DANIEL F 1 3:07:22 0:08:09
4 8244 RAJAT CHRISTOPHE E 2 3:07:50 0:08:37
5 8066 LAUFRAY ALEXANDRE C 2 3:07:54 0:08:41
6 8207 MOUGET LOIC C 3 3:10:13 0:11:00
7 8267 QUINTENS PASCAL D 1 3:10:20 0:11:07
8 8114 BOUREL PASCAL E 3 3:15:03 0:15:50
9 8173 CROUIN MICKAEL C 4 3:15:29 0:16:16
10 8296 GIRAUDO CLAUDIO C 5 3:15:42 0:16:29
11 8285 THOREAU BRUNO E 4 3:25:01 0:25:48
12 8268 DEGRANGE FRANCOIS F 2 3:25:02 0:25:49
13 8260 ARNAUD SYLVAIN D 2 3:25:38 0:26:25
14 8101 UGHETTO RENAUD C 6 3:27:55 0:28:42
15 8206 CAPRON ALAIN E 5 3:29:37 0:30:24
16 8104 ROZEC JEAN NOEL E 6 3:29:54 0:30:41
17 8284 VERNE JEROME D 3 3:31:14 0:32:01
18 8276 GASPAR PHILIPPE E 7 3:32:30 0:33:17
19 8117 VACHER FREDERIC E 8 3:38:25 0:39:12
20 8297 CHRISTOUAN LIONEL D 4 3:39:09 0:39:56
21 8134 LORGERON JACKY F 3 3:41:02 0:41:49
22 8184 MOORS FONS G1 1 3:43:59 0:44:46
23 8171 CLAIN JEAN MARIE E 9 3:44:37 0:45:24
24 8295 RAVUSSIN FRANCOIS G2 1 3:45:31 0:46:18
25 8169 BARRAL BRUNO F 4 3:45:46 0:46:33
26 8080 MALOT ALAIN F 5 3:46:16 0:47:03
27 8205 QUARTELLI GERARD G1 2 3:48:05 0:48:52
28 8076 UBERTO GILLES F 6 3:49:06 0:49:53
29 8239 NAVARRO CHRISTIAN E 10 3:50:27 0:51:14
30 8286 COLOTTE ERIC E 11 3:53:16 0:54:03
31 8289 AXAM STUART D 5 3:54:10 0:54:57
32 8255 QUEW RUSSEL E 12 3:55:50 0:56:37
33 8240 LANCON PATRICK F 7 3:56:57 0:57:44
34 8185 KUEHN INGO D 6 3:59:45 1:00:32
35 8143 HOLTON ROBERT E 13 3:59:51 1:00:38
36 8242 HILLIER BEN E 14 4:00:35 1:01:22
37 8164 YAMAGUCHI SHUNICHI F 8 4:00:49 1:01:36
38 8135 DESSIAUME GAUTIER C 7 4:01:14 1:02:01
39 8146 PRADES REGIS F 9 4:01:19 1:02:06
40 8172 MARTINEZ PATRICE D 7 4:01:27 1:02:14
41 8133 RYBARCZYK BENOIT D 8 4:01:28 1:02:15
42 8192 OVERHAND MAX C 8 4:01:37 1:02:24
43 8183 BOUVARD PASCALE AB 1 4:01:49 1:02:36
44 8280 KEARNEY DANIEL C 9 4:03:27 1:04:14
45 8204 LANARD BENOIT C 10 4:03:36 1:04:23
46 8003 WOODS JULIA AB 2 4:03:53 1:04:40
47 8279 COLIN MICHEL G1 3 4:04:41 1:05:28
48 8154 PARE MARK E 15 4:05:03 1:05:50
49 8081 BRUEL GUILLAUME C 11 4:08:00 1:08:47
50 8177 FOUR LIONEL E 16 4:08:06 1:08:53
51 8085 GINET PIERRE F 10 4:08:23 1:09:10
52 8147 PIC PIERRE F 11 4:10:08 1:10:55
53 8263 SELS RENART F 12 4:10:11 1:10:58
54 8287 HAVRAY STEPHAN E 17 4:11:20 1:12:07
55 8004 CAMPION JOANNA A 1 4:13:01 1:13:48
56 8032 VANDEGHINSTE WILFRIED G1 4 4:15:08 1:15:55
57 8174 GODFROY MARC C 12 4:15:32 1:16:19
58 8175 GODFROY THOMAS D 9 4:15:33 1:16:20
59 8038 DIRKS STIJN D 10 4:16:17 1:17:04
60 8036 LAPEIRE SONNY D 11 4:16:23 1:17:10
61 8061 ALLEWELL RICHARD E 18 4:18:32 1:19:19
62 8208 CAQUELARD THIERRY J 1 4:19:03 1:19:50
63 8168 MARTIN BRUNO E 19 4:22:38 1:23:25
64 8203 DESSIAUME FABIEN D 12 4:25:11 1:25:58
65 8288 PERRIN BERTRAND E 20 4:25:47 1:26:34
66 8060 PLOMPEN FILIP C 13 4:27:11 1:27:58
67 8105 CRETTON LIONEL D 13 4:27:47 1:28:34
68 8131 KLOSSNER FLORIAN D 14 4:28:13 1:29:00
69 8283 CLUZEAU JEAN PIERRE F 13 4:30:31 1:31:18
70 8139 KAUFMAN SHAWN D 15 4:31:56 1:32:43
71 8269 ROELOFSMA MARK C 14 4:32:27 1:33:14
72 8165 KIMMICH MICHEL E 21 4:32:32 1:33:19
73 8144 GIMEL MARCEL G2 2 4:32:47 1:33:34
74 8215 ACQUARONE JEAN CLAUDE D 16 4:32:49 1:33:36
75 8102 KULAR RANJ E 22 4:32:50 1:33:37
76 8291 CAUWELIER MICHIEL C 15 4:34:22 1:35:09
77 8277 JUNG CHRISTIAN F 14 4:35:36 1:36:23
78 8035 TRUJILLO JUAN E 23 4:35:38 1:36:25
79 8040 GOEMAN MARCO D 17 4:41:23 1:42:10
80 8107 VOUILLAMOZ YVAN E 24 4:42:42 1:43:29
81 8254 CHASTELAS GASTON G2 3 4:43:58 1:44:45
82 8198 DECHAUME JEROME D 18 4:44:22 1:45:09
83 8042 VAN GRAAFEILAND RENE D 19 4:44:33 1:45:20
84 8023 FELIUS ALBALAT CARLOS C 16 4:47:27 1:48:14
85 8022 CARCELLER RIPOLLES FERNANDO D 20 4:47:41 1:48:28
86 8130 DIDELOT RAYMOND G1 5 4:48:13 1:49:00
87 8088 MARTIN MADSEN NIELS C 17 4:50:52 1:51:39
88 8293 DAOUST LOUIS C 18 4:52:19 1:53:06
89 8156 MORTEN CHRISTENSEN E 25 4:52:25 1:53:12
90 8273 MONTGOMERY TRACY D 21 4:55:45 1:56:32
91 8281 JOYE JEAN FRANCOIS D 22 4:56:06 1:56:53
92 8214 GALVEZ CHRISTOPHE D 23 4:56:27 1:57:14
93 8065 SKERNBY PETER E 26 4:56:29 1:57:16
94 8197 DAVE SEBASTIEN D 24 4:56:39 1:57:26
95 8294 NARI PATRIZIA AB 3 4:56:44 1:57:31
96 8068 LANNOYE JULIEN D 25 4:57:56 1:58:43
97 8092 RICHARDSON PETER E 27 4:58:36 1:59:23
98 8258 BOZON MAURICE G2 4 4:58:39 1:59:26
99 8140 JAVOR VANESSA A 2 5:00:17 2:01:04
100 8179 VERCRUYSSE RUBEN C 19 5:00:35 2:01:22
101 8160 SAVARY ROBIN C 20 5:01:03 2:01:50
102 8070 KENDRICK ALASTAIR D 26 5:02:55 2:03:42
103 8093 LEMONNIER LAURENT E 28 5:03:45 2:04:32
104 8046 EXPOSITO SAMUEL D 27 5:04:45 2:05:32
105 8052 HOLLANDERS GOELE A 3 5:06:01 2:06:48
106 8181 BROWWER ALBERT F 15 5:07:09 2:07:56
107 8073 STEINER NADIA B 1 5:07:52 2:08:39
108 8115 DAGLIA MARTIAL E 29 5:07:52 2:08:39
109 8112 MAINDRON CHRISTIAN E 30 5:08:21 2:09:08
110 8031 VERBRUGGHE ALEXANDER D 28 5:08:42 2:09:29
111 8182 ZANINI GIANCARLO E 31 5:09:04 2:09:51
112 8145 DERRIEN JEROME D 29 5:10:58 2:11:45
113 8141 COLLET PHILIPPE F 16 5:12:11 2:12:58
114 8166 HOFFNUNG LUDOVIC E 32 5:13:00 2:13:47
115 8259 FAUCHER DAMIEN C 21 5:13:06 2:13:53
116 8188 VEDEL SONNE JEPPE C 22 5:13:21 2:14:08
117 8058 VALLANCE PAUL D 30 5:14:34 2:15:21
118 8195 MARTIN YANNICK E 33 5:16:35 2:17:22
119 8161 SAVARY FRANCOIS E 34 5:17:17 2:18:04
120 8045 DURAND JEAN FRANCOIS D 31 5:18:22 2:19:09
121 8010 JORQUES EDUARDO D 32 5:18:29 2:19:16
122 8193 PEREZ MARIN EMILIO D 33 5:19:43 2:20:30
123 8116 GIMENEZ MARIN ALFONSO C 23 5:19:45 2:20:32
124 8167 HOFFNUNG J.JACQUES F 17 5:21:25 2:22:12
125 8030 MUNRO LISA AB 4 5:23:40 2:24:27
126 8029 MUNRO MICHAEL G1 6 5:23:40 2:24:27
127 8109 SABARTHES MICHEL F 18 5:24:53 2:25:40
128 8186 KUEHN LYDIA AB 5 5:25:11 2:25:58
129 8086 PETTY JONATHAN E 35 5:26:08 2:26:55
130 8123 KRISTENSEN HENNING F. G2 5 5:27:01 2:27:48
131 8098 MAGNAT LAURENT D 34 5:31:29 2:32:16
132 8079 RAMAN GRIET A 4 5:32:19 2:33:06
133 8078 PAUWELS KAAT A 5 5:32:20 2:33:07
134 8251 MADSEN EMIL LEE C 24 5:34:05 2:34:52
135 8122 KRARUP JAN G1 7 5:34:11 2:34:58
136 8084 CHAPEAU JORIS C 25 5:35:47 2:36:34
137 8083 CHAPEAU PHILIPPE E 36 5:35:47 2:36:34
138 8158 HARDER MARLIES AB 6 5:38:57 2:39:44
139 8121 FLEMMING BIRK G1 8 5:40:30 2:41:17
140 8027 MONTSE CASTELLÓ AB 7 5:42:15 2:43:02
141 8028 ANDRIEUX PHILIPPE F 19 5:42:16 2:43:03
142 8051 NEYENS JOSEE B 2 5:44:52 2:45:39
143 8059 CREAN TOM E 37 5:45:40 2:46:27
144 8190 TRANSON PHILIPPE E 38 5:48:31 2:49:18
145 8162 HENNERE JEAN CLAUDE F 20 5:56:47 2:57:34
146 8047 SALENDRES MARTIAL E 39 5:57:15 2:58:02
147 8300 JONES PAUL D 35 6:05:03 3:05:50
148 8252 TUYPENS RUDY F 21 6:12:57 3:13:44
149 8111 DELB BERNARD F 22 6:14:28 3:15:15
150 8262 VAN GILS ROZA B 3 6:15:49 3:16:36
151 8044 WILKINSON LORI AB 8 6:16:09 3:16:56
152 3316 SANDAGER BJARNE F 23 6:17:41 3:18:28
153 8005 MARTINEZ CAROLINE A 6 6:20:26 3:21:13
154 8272 TREU CHRISTIAN C 26 6:21:26 3:22:13
155 3311 LARSEN HANS CHR G2 6 6:26:41 3:27:28
156 8299 JONES ANDREW E 40 6:28:00 3:28:47
157 8009 BRAUN VIVIENNE AB 9 6:32:49 3:33:36
158 8024 VAN DER KOOY BRAM F 24 6:36:57 3:37:44
159 8124 SANCHEZ-TORAL ALFONSO E 41 6:57:42 3:58:29
160 8278 YOUNG ROBERT E 42 7:13:17 4:14:04
161 8069 ANDERTON PAUL E 43 7:25:18 4:26:05
162 8099 MARTINOT ARTHUR C 27 7:29:12 4:29:59
163 8043 MARTHUNSEN ANNE MARIE F 25 7:34:55 4:35:42
164 8271 VANDENDRIESSHE KURT E 44 7:38:05 4:38:52
165 8002 TORRES JEAN YVES G1 9 7:47:08 4:47:55
166 8006 HOLLINGSWORTH KAREN AB 10 7:50:24 4:51:11
167 8007 BROWN JULIE B 4 7:55:42 4:56:29
168 8163 BRINCH HENRIETTE AB 11 8:04:44 5:05:31
169 8155 ANDERSEN CLAUS E 45 8:44:20 5:45:07
170 8142 VILJOEN DAVID F 26 9:15:44 6:16:31
171 8651 HINDLEY GRAEME E 46 13:56:55 10:57:42

Na górę 









Na górę  
 Strefa prywatna   Prawa autorskie-Copyright: Ciśnijcie tu żeby przeczytać!